019  
ASUS41 KBOX 201610  
RWRBOX  
 
REGIONAL WEATHER ROUNDUP  
NATIONAL WEATHER SERVICE BOSTON/NORTON MA  
1200 PM EDT WED JUN 20 2018  
 
NOTE: "FAIR" INDICATES FEW OR NO CLOUDS BELOW 12,000 FEET WITH NO  
SIGNIFICANT WEATHER AND/OR S TO VISIBILITY
.  
 
MAZALL-201700-  
EASTERN MASSACHUSETTS  
 
CITY SKY/WX TMP DP RH WIND PRES REMARKS
 
BOSTON PTSUNNY 74 51 44 SE7 29.85F  
BEVERLY FAIR 77 53 43 SW9 29.84F  
LAWRENCE FAIR 79 52 38 S10 29.86F  
BEDFORD FAIR 78 52 40 S9 29.84F  
BLUE HILL N/A 77 52 41 S9 29.86F  
NORWOOD FAIR 81 54 39 VRB7 29.85F  
MARSHFIELD FAIR 75 55 50 SE8 29.85F  
PLYMOUTH FAIR 77 60 55 S10G17 29.87F  
TAUNTON FAIR 80 59 48 SW10 29.86F  
NEW BEDFORD FAIR 76 61 59 SW17 29.87F  

 
 
MAZALL-201700-  
CAPE COD AND THE ISLANDS  
 
CITY SKY/WX TMP DP RH WIND PRES REMARKS
 
FALMOUTH FAIR 75 59 57 SW18 29.89F  
HYANNIS FAIR 74 58 57 S13 29.87F  
CHATHAM FAIR 75 59 57 VRB6 29.90S  
PROVINCETOWN FAIR 76 54 46 S10 29.87F  
NANTUCKET FAIR 68 63 84 S6 29.90F  
MARTHAS VNYRD FAIR 71 61 70 SW12 29.89F  

 
 
MAZALL-201700-  
CENTRAL AND WESTERN MASSACHUSETTS  
 
CITY SKY/WX TMP DP RH WIND PRES REMARKS
 
WORCESTER FAIR 71 51 49 MISG 29.89F  
FITCHBURG FAIR 75 53 46 SW8 29.87F  
ORANGE FAIR 74 51 44 SW9 29.89F  
SPRINGFIELD PTSUNNY 74 52 45 W3 29.87F  
WESTFIELD FAIR 74 54 49 E5 29.88F  
NORTH ADAMS FAIR 70 51 51 VRB6 29.88F  
PITTSFIELD FAIR 68 49 50 SW6 29.90F  

 
 
RIZALL-201700-  
RHODE ISLAND  
 
CITY SKY/WX TMP DP RH WIND PRES REMARKS
 
PROVIDENCE FAIR 77 58 51 S9 29.87F  
NEWPORT FAIR 71 62 73 S8 29.88F  
BLOCK ISLAND FAIR 70 64 81 S12 29.89F  
SMITHFIELD FAIR 76 55 48 VRB5 29.88F  
WESTERLY FAIR 74 58 57 S9 29.89F  

 
 
CTZALL-201700-  
CONNECTICUT  
 
CITY SKY/WX TMP DP RH WIND PRES REMARKS
 
BRADLEY INTL PTSUNNY 77 55 46 SW7 29.88F  
HARTFORD FAIR 76 54 46 S7 29.87F  
BRIDGEPORT FAIR 73 51 46 E8 29.88F  
DANBURY FAIR 74 53 48 VRB5 29.90F  
GROTON FAIR 72 56 57 S6 29.88S  
NEW HAVEN PTSUNNY 75 54 47 S8 29.88F  
CHESTER FAIR 79 54 41 W3 29.89S  
MERIDEN FAIR 77 54 44 VRB6 29.88F  
WILLIMANTIC FAIR 76 55 48 CALM 29.88F  
OXFORD FAIR 74 55 51 NW5 29.91F  

 
 
MEZ002-015-021-024-NHZ003-005-008-011-012-014-VTZ005-008-201700-  
NORTHERN NEW ENGLAND  
 
CITY SKY/WX TMP DP RH WIND PRES REMARKS
 
PORTLAND ME PTSUNNY 77 48 35 SW9 29.82F  
BANGOR ME FAIR 77 48 35 SW9G17 29.78F  
CONCORD NH FAIR 79 51 37 SW8 29.84F  
MANCHESTER NH PTSUNNY 78 47 33 SW9 29.83F  
NASHUA NH FAIR 76 52 43 VRB6 29.85F  
PORTSMOUTH NH PTSUNNY 79 46 30 SW8 29.82F  
JAFFREY NH FAIR 74 48 39 SW8 29.89F  
KEENE NH FAIR 77 49 37 VRB5 29.87F  
BURLINGTON VT PTSUNNY 75 49 39 S7 29.84F  
MT. WASHINGTON PTSUNNY 48 34 57 W33G39 N/A  

 
 
NYZ052-076-201700-  
EASTERN NEW YORK  
 
CITY SKY/WX TMP DP RH WIND PRES REMARKS
 
ALBANY CLOUDY 73 53 49 S6 29.89F  
NEW YORK CITY PTSUNNY 76 54 46 NE7 29.87F  

 
 
ANZALL-201700-  
MARINE OBSERVATIONS  
 
STATION/POSITION TIME TEMP WIND PRES VSBY WAVE
 
AIR SEA DIR/SP/G HT/PER  
(UTC) (F) (DEG/KT/KT) (MB) (MI) (FT/S)  
BOSTON BUOY 1550 66 65 120/ 6/ 8 1011.2F 1/ 7  
BUZZARDS BAY 1500 63 160/ 10/ 10 1013.0S  
NANTUCKET SOUND 1550 65 65 200/ 6/ 8 1012.2F 1  
MASS BAY-STELLWA 1504 59 61 1010.4F 1/ 8  
ISLE OF SHOALS 1600 68 160/ 16/ 17 1010.0F  
S OF BLOCK IS 1543 62 N/A 2/ 7  

 
   
.....................KEY......................
 
 
SKY/WX - SKY CONDITION/PRESENT WEATHER  
TMP - TEMPERATURE IN FAHRENHEIT  
DWPT - DEWPOINT IN FAHRENHEIT  
RH - RELATIVE HUMIDITY IN PERCENT  
WIND - DIRECTION AND SPEED IN MPH  
PRES - MEAN SEA LEVEL PRESSURE IN INCHES OF HG  
WCI - WIND CHILL INDEX  
VSB - VISIBILITY IN MILES  
HX - HEAT INDEX  
TC - TEMPERATURE IN CELSIUS  
VRB - VARIABLE WIND DIRECTION  
N/A - NOT AVAILABLE  
 
 
CLICK HERE TO GO TO PREVIOUS BULLETINS.

The Nexlab MA Page
The Nexlab RI Page
The Nexlab NH Page
The Nexlab CT Page Main Text Page